EW9528 Weather Reports


Display with metric or nautical units.
time (UTC)temp
F
wind
direction
speed
MPH
gust
MPH
rain 1hr
in
rain 24hr
in
rain mn
in
humidity
%
barometer
mb
20260505195117 53 163 4.0 6.0 0.00 0.01 0.01 52 1013.9
20260505194118 53 171 6.0 11.0 0.00 0.01 0.01 54 1013.8
20260505193114 53 165 4.0 7.0 0.00 0.01 0.01 54 1014.0
20260505192116 53 165 4.0 6.0 0.00 0.01 0.01 53 1014.0
20260505191216 53 143 4.0 6.0 0.00 0.01 0.01 54 1014.0
20260505190215 53 166 5.0 8.0 0.00 0.01 0.01 55 1014.2
20260505185234 52 150 5.0 8.0 0.00 0.01 0.01 57 1014.1
20260505184317 52 167 6.0 9.0 0.00 0.01 0.01 59 1014.1
20260505182317 51 148 6.0 10.0 0.00 0.01 0.01 60 1014.1
20260505181315 51 157 5.0 8.0 0.00 0.01 0.01 61 1014.1
20260505180316 51 157 2.0 5.0 0.00 0.01 0.01 60 1014.3
20260505175314 51 141 3.0 6.0 0.00 0.01 0.01 61 1014.3
20260505174315 51 127 3.0 5.0 0.00 0.01 0.01 62 1014.2
20260505173414 51 128 6.0 10.0 0.00 0.01 0.01 62 1014.4
20260505171515 50 173 3.0 4.0 0.00 0.01 0.01 65 1014.4
20260505170523 50 136 6.0 11.0 0.00 0.01 0.01 66 1014.4
20260505165517 50 141 3.0 8.0 0.00 0.01 0.01 67 1014.3
20260505164516 49 118 4.0 11.0 0.00 0.01 0.01 69 1014.2
20260505162619 49 141 2.0 8.0 0.00 0.01 0.01 68 1014.2
20260505161616 49 110 6.0 12.0 0.00 0.01 0.01 69 1014.1
20260505152715 49 137 5.0 8.0 0.00 0.01 0.01 69 1013.7
20260505151715 49 151 5.0 11.0 0.00 0.01 0.01 69 1013.7
20260505150814 49 119 4.0 10.0 0.01 0.01 0.01 69 1013.6
20260505130115 53 157 2.0 4.0 0.00 0.00 0.00 65 1012.3
20260505124116 53 202 2.0 3.0 0.00 0.00 0.00 66 1011.9
20260505123115 53 202 2.0 3.0 0.00 0.00 0.00 66 1011.8
20260505122215 53 180 2.0 3.0 0.00 0.00 0.00 68 1011.8
20260505121215 53 205 3.0 4.0 0.00 0.00 0.00 70 1011.9
20260505120215 53 203 3.0 4.0 0.00 0.00 0.00 70 1011.8
20260505115215 53 192 5.0 7.0 0.00 0.00 0.00 69 1011.9
20260505114230 53 182 6.0 10.0 0.00 0.00 0.00 69 1011.9
20260505113215 53 169 5.0 8.0 0.00 0.00 0.00 69 1012.1
20260505112215 53 202 1.0 2.0 0.00 0.00 0.00 66 1012.1
20260505111231 54 148 2.0 4.0 0.00 0.00 0.00 66 1011.9
20260505110217 53 158 1.0 4.0 0.00 0.00 0.00 63 1011.8
20260505101315 54 225 1.0 2.0 0.00 0.00 0.00 59 1011.7
20260505100315 55 225 2.0 4.0 0.00 0.00 0.00 58 1011.9
20260505100214 55 225 2.0 4.0 0.00 0.00 0.00 57 1011.8
20260505093217 54 202 1.0 2.0 0.00 0.00 0.00 61 1011.8
20260505092314 53 202 3.0 4.0 0.00 0.00 0.00 63 1011.8
20260505091316 54 202 0.0 1.0 0.00 0.00 0.00 65 1011.9
20260505090315 54 202 2.0 3.0 0.00 0.00 0.00 65 1011.9
20260505085317 53 202 3.0 4.0 0.00 0.00 0.00 67 1012.0
20260505084316 53 184 2.0 4.0 0.00 0.00 0.00 68 1012.1
20260505083316 53 202 3.0 5.0 0.00 0.00 0.00 69 1012.1
20260505081416 53 225 2.0 4.0 0.00 0.00 0.00 66 1011.9
20260505080415 54 202 0.0 0.0 0.00 0.00 0.00 66 1012.2
20260505075417 54 202 2.0 4.0 0.00 0.00 0.00 65 1012.3
20260505075331 54 198 2.0 3.0 0.00 0.00 0.00 65 1012.3
20260505073315 55 168 4.0 6.0 0.00 0.00 0.00 63 1012.6
20260505072316 55 138 5.0 6.0 0.00 0.00 0.00 62 1012.7
20260505071315 55 174 4.0 6.0 0.00 0.00 0.00 62 1012.8
20260505070415 55 157 1.0 3.0 0.00 0.00 0.00 59 1012.9
20260505065415 55 112 3.0 5.0 0.00 0.00 0.00 55 1012.8
20260505064416 55 45 1.0 1.0 0.00 0.00 0.00 54 1012.9
20260505063514 55 247 0.0 3.0 0.00 0.00 0.00 53 1012.9
20260505062531 55 236 4.0 6.0 0.00 0.00 0.00 53 1012.7
20260505061615 56 246 6.0 11.0 0.00 0.00 0.00 53 1012.6
20260505060616 55 234 11.0 18.0 0.00 0.00 0.00 52 1012.7
20260505053624 55 231 16.0 25.0 0.00 0.00 0.00 55 1012.4
20260505052626 55 221 7.0 9.0 0.00 0.00 0.00 56 1012.8
20260505051627 56 225 6.0 11.0 0.00 0.00 0.00 56 1012.8
20260505050625 56 217 10.0 16.0 0.00 0.00 0.00 54 1012.5
20260505040525 59 296 2.0 4.0 0.00 0.00 0.00 45 1011.6
20260505035525 60 245 5.0 9.0 0.00 0.00 0.00 43 1011.6
20260505033526 61 240 5.0 9.0 0.00 0.00 0.00 42 1011.1
20260505032526 61 225 2.0 5.0 0.00 0.00 0.00 42 1011.1
20260505031527 61 232 5.0 10.0 0.00 0.00 0.00 42 1010.9
20260505030524 61 234 7.0 12.0 0.00 0.00 0.00 41 1010.7
20260505025527 61 225 3.0 4.0 0.00 0.00 0.00 41 1010.7
20260505023625 62 177 5.0 7.0 0.00 0.00 0.00 40 1010.4
20260505020628 63 159 10.0 14.0 0.00 0.00 0.00 41 1010.2
20260505020524 63 165 7.0 12.0 0.00 0.00 0.00 41 1010.2
20260505015528 63 184 4.0 6.0 0.00 0.00 0.00 41 1010.1
20260505015442 63 177 6.0 7.0 0.00 0.00 0.00 42 1010.2
20260505013525 64 157 8.0 10.0 0.00 0.00 0.00 42 1010.0
20260505012525 64 155 3.0 5.0 0.00 0.00 0.00 44 1010.2
20260505011526 65 159 8.0 12.0 0.00 0.00 0.00 40 1010.2
20260505010526 67 137 7.0 10.0 0.00 0.00 0.00 33 1010.0
20260505005525 68 182 9.0 12.0 0.00 0.00 0.00 29 1009.8
20260505004624 69 172 3.0 5.0 0.00 0.00 0.00 28 1009.9
20260505003625 69 185 3.0 5.0 0.00 0.00 0.00 28 1010.0
20260505002628 69 180 3.0 4.0 0.00 0.00 0.00 27 1010.0
20260505000625 69 159 4.0 8.0 0.00 0.00 0.00 27 1010.0
20260504235627 69 175 4.0 7.0 0.00 0.00 0.00 26 1010.0
20260504235525 69 158 3.0 6.0 0.00 0.00 0.00 26 1010.0
20260504234542 69 270 0.0 0.0 0.00 0.00 0.00 26 1010.1
20260504232624 68 315 2.0 4.0 0.00 0.00 0.00 28 1010.0
20260504231626 67 317 0.0 5.0 0.00 0.00 0.00 28 1010.0
20260504230644 67 315 0.0 4.0 0.00 0.00 0.00 28 1009.8
20260504225626 68 275 4.0 7.0 0.00 0.00 0.00 28 1010.1
20260504224724 69 319 3.0 7.0 0.00 0.00 0.00 28 1010.1
20260504223727 69 299 5.0 9.0 0.00 0.00 0.00 29 1010.1
20260504222741 71 322 3.0 9.0 0.00 0.00 0.00 28 1010.1
20260504221824 71 287 5.0 9.0 0.00 0.00 0.00 28 1010.2
20260504215924 71 308 3.0 8.0 0.00 0.00 0.00 27 1009.9
20260504214925 70 309 1.0 4.0 0.00 0.00 0.00 27 1010.2
20260504213928 70 297 2.0 6.0 0.00 0.00 0.00 30 1010.3
20260504212926 68 325 2.0 7.0 0.00 0.00 0.00 31 1010.5
20260504211927 68 325 2.0 7.0 0.00 0.00 0.00 31 1010.5
20260504210927 68 316 3.0 6.0 0.00 0.00 0.00 31 1010.6
20260504205942 69 321 4.0 12.0 0.00 0.00 0.00 29 1010.7
20260504205025 69 192 4.0 8.0 0.00 0.00 0.00 31 1010.9
20260504204941 69 227 4.0 6.0 0.00 0.00 0.00 31 1010.9
20260504203927 68 188 5.0 7.0 0.00 0.00 0.00 33 1010.7
20260504202926 68 170 7.0 11.0 0.00 0.00 0.00 34 1010.7
20260504201925 68 161 7.0 9.0 0.00 0.00 0.00 32 1010.8
20260504200025 69 166 8.0 10.0 0.00 0.00 0.00 30 1010.9